Weather in Kokadoy

Russia / Chechen Republic     42°44′59″N   45°35′08″E
temp.,
°C
wind,
m/s
gust,
m/s
humid.,
%
clouds,
%
prec.,
mm/h
press.,
hPa
HPBL,
m
14 april, wed
wed1400:00+2ssw228787 5.6 101729
03:00+3wsw118831 7.3 101522
06:00+3nnw018994 0.3 101643
09:00+4nne2293100 1.6 1016445
12:00+1nnw1199100 7.6 1018155
15:00+2nw1298100 10.9 1018230
18:00+2sw119688 1.1 1019117
21:00−1ssw328613 1.1 102133
15 april, thu
thu1500:00−2ssw32771 0.0 102138
03:00−3ssw32720 0.0 102235
06:00−2ssw33680 0.0 102243
09:00+7n11500 0.0 1016631
12:00+10nw13455 0.0 10151753
15:00+9n225699 0.1 10151467
18:00+5e1184100 0.8 1018142
21:00+3ssw2183100 0.8 102028
16 april, fri
fri1600:00+2ssw2279100 0.0 102029
03:00+1ssw227592 0.0 102028
06:00+1ssw22745 0.0 102034
09:00+8ne115658 0.0 1018820
12:00+11ne125293 0.4 10161438
15:00+10nne116029 1.9 10161079
18:00+8ese117439 0.6 101682
21:00+4ssw33765 0.7 101958
17 april, sat
sat1700:00+4ssw347930 0.0 102068
03:00+3ssw3375100 0.0 102047
06:00+4sw227186 0.0 102035
09:00+9nne326084 0.0 1019787
12:00+7nne3286100 0.2 1020642
15:00+5ne2196100 0.6 1021329
18:00+5ne2299100 0.3 1022211
21:00+4ne1198100 0.8 1021118
18 april, sun
sun1800:00+4e019796 0.1 102074
03:00+4nne2299100 1.4 1020164
06:00+4e1194100 7.1 102198
09:00+9ne117365 7.2 1018589
12:00+9nne117794 0.1 1018528
15:00+11nne1168100 0.1 1018841
18:00+9nne118595 0.0 1019109
21:00+6ssw337911 0.0 102135